Location: JKWMA (FRAC)
(33.1803°N, 84.5512°W)
Time: 00:53:03
(UTC-04:00)

Hubble Space Telescope - Pass Details

Date: 30 March 2019
Orbit: 537 x 540 km, 28.5° (Epoch: 22 April)

Event Time Altitude Azimuth Distance (km) Brightness Sun altitude
Rises 21:34:07 0° 265° (W) 2,673 5.5 -20.6°
Reaches altitude 10° 21:36:30 10° 256° (WSW) 1,782 4.2 -21.1°
Enters shadow 21:40:13 35° 192° (SSW) 878 1.7 -21.8°
